Location: Newark
(26.8229°N, 81.7649°W)
Time: 15:45:57
(UTC+00:00)

NOAA 18 - Visible Passes

Search period start: 04 April 2020 00:00
Search period end: 14 April 2020 00:00
Orbit: 840 x 862 km, 99.1° (Epoch: 03 April)

Date Brightness Start Highest point End Pass type
(mag) Time Alt. Az. Time Alt. Az. Time Alt. Az.
04 Apr 6.3 01:50:10 30° NNE 01:50:10 30° NNE 01:53:16 10° N visible
04 Apr 8.1 03:32:10 11° WNW 03:32:10 11° WNW 03:32:24 10° NW visible
05 Apr 6.4 01:38:08 26° NE 01:38:08 26° NE 01:41:13 10° N visible
05 Apr 7.8 03:20:08 15° NW 03:20:08 15° NW 03:21:17 10° NW visible
06 Apr 6.6 01:26:05 22° NE 01:26:05 22° NE 01:29:02 10° NNE visible
06 Apr 7.5 03:08:05 19° NW 03:08:05 19° NW 03:09:57 10° NW visible
07 Apr 6.8 01:14:03 18° NE 01:14:03 18° NE 01:16:41 10° NNE visible
07 Apr 7.2 02:56:03 24° NW 02:56:03 24° NW 02:58:27 10° NNW visible
08 Apr 7.0 01:02:02 14° ENE 01:02:02 14° ENE 01:04:04 10° NE visible
08 Apr 6.8 02:44:01 30° NW 02:44:01 30° NW 02:46:52 10° NNW visible
09 Apr 6.4 02:31:59 36° NNW 02:31:59 36° NNW 02:35:11 10° NNW visible
10 Apr 6.1 02:19:57 41° N 02:19:57 41° N 02:23:24 10° NNW visible
11 Apr 6.0 02:07:55 42° NNE 02:07:55 42° NNE 02:11:33 10° N visible
12 Apr 6.0 01:55:53 38° NNE 01:55:53 38° NNE 01:59:38 10° N visible
12 Apr 8.0 03:37:52 11° WNW 03:37:52 11° WNW 03:38:13 10° WNW visible
13 Apr 6.1 01:43:50 32° NE 01:43:50 32° NE 01:47:37 10° N visible
13 Apr 7.7 03:25:50 15° WNW 03:25:50 15° WNW 03:27:16 10° NW visible
